SCP
0 0 -0 0 0 -0 -0 -0 0 0 0 0 0 0 0 0 0 0 0 -0 -0 0 0 0 0 -0 -0 -0 -0 -0 -0 -0 -0 -0 -0 -0 -0 -0 -0 -0 -0 -0 -0 -0 -0 -0 -0 -0 -0
0 0 0 0 -0 -0 0 0 0 0 0 0 0 0 0 0 0 0 0 0 -0 -0 0 0 0 -0 -0 -0 -0 -0 -0 -0 -0 -0 -0 -0 -0 -0 -0 -0 -0 -0 -0 -0 -0 -0 -0 -0 -0
0 0 0 0 -0 -0 0 0 0 0 0 0 0 0 0 0 -0 0 -0 -0 -0 -0 0 0 -0 -0 -0 -0 -0 -0 -0 -0 -0 -0 -0 -0 -0 -0 -0 -0 -0 -0 -0 -0 -0 -0 -0 -0 -0
0 0 0 0 0 0 0 0 0 0 0 -0 0 0 0 0 0 0 -0 -0 -0 -0 -0 -0 -0 -0 -0 -0 -0 -0 -0 -0 -0 -0 -0 -0 -0 -0 -0 -0 -0 -0 -0 -0 -0 -0 -0 -0 -0
0 0 0 0 0 0 -0 -0 -0 0 -0 -0 0 0 0 -0 -0 -0 -0 -0 -0 -0 -0 -0 -0 -0 -0 -0 -0 -0 -0 -0 -0 -0 -0 -0 -0 -0 -0 -0 -0 -0 -0 -0 -0 -0 -0 -0 -0
0 0 0 0 0 -0 -0 0 -0 0 0 -0 -0 -0 0 -0 -0 -0 -0 -0 -0 -0 -0 -0 -0 -0 -0 -0 -0 -0 -0 -0 -0 -0 -0 -0 -0 -0 -0 -0 -0 -0 -0 -0 -0 -0 -0 -0 -0
0 0 0 0 0 0 0 0 -0 -0 -0 -0 -0 -0 0 0 0 -0 -0 -0 -0 -0 -0 -0 -0 -0 -0 -0 -0 -0 -0 -0 -0 -0 -0 -0 -0 -0 -0 -0 -0 -0 -0 -0 -0 -0 -0 -0 -0
0 0 0 0 0 0 -0 -0 -0 -0 -0 -0 -0 -0 -0 0 -0 -0 0 -0 -0 -0 -0 -0 -0 -0 -0 -0 -0 -0 -0 -0 -0 -0 -0 -0 -0 -0 -0 -0 -0 -0 -0 -0 -0 -0 -0 -0 -0
0 0 0 0 0 0 -0 0 0 0 -0 0 0 -0 -0 -0 -0 -0 0 0 0 0 -0 -0 -0 -0 -0 0 0 -0 -0 -0 -0 -0 -0 -0 0 0 0 0 -0 -0 -0 -0 -0 -0 -0 -0 -0
0 0 0 0 0 0 0 0 0 0 0 0 0 0 0 -0 -0 -0 -0 -0 0 -0 -0 -0 -0 -0 -0 0 0 0 0 0 0 0 0 0 0 0 0 0 0 0 0 -0 -0 -0 -0 0 0
0 0 0 0 0 0 0 0 0 0 0 0 -0 0 -0 -0 -0 -0 -0 -0 -0 -0 0 -0 -0 -0 -0 0 0 0 0 0 0 0 0 0 0 0 0 0 0 0 0 0 0 0 0 0 0
0 0 0 0 0 0 0 0 0 0 0 0 0 -0 -0 -0 -0 -0 -0 -0 -0 -0 -0 -0 -0 -0 0 0 0 0 0 0 0 0 0 0 0 0 0 0 0 0 0 0 0 0 0 0 0
0 0 0 0 0 0 0 0 0 0 -0 0 0 0 -0 -0 -0 -0 -0 0 0 -0 -0 -0 0 -0 0 0 0 0 0 0 0 0 0 0 0 0 0 0 0 0 0 0 0 0 0 0 0
0 0 0 0 0 0 0 0 0 0 0 -0 0 0 -0 -0 -0 0 0 -0 -0 -0 -0 0 0 0 0 0 0 0 0 0 0 0 0 0 0 0 0 0 0 0 0 0 0 0 0 0 0
0 0 0 0 0 0 0 0 0 0 0 0 0 0 0 -0 0 -0 -0 -0 -0 -0 0 -0 0 0 0 0 0 0 0 0 0 0 0 0 0 0 0 0 0 0 0 0 0 0 0 0 0
0 0 0 0 0 0 0 0 0 0 0 0 0 0 0 0 -0 -0 0 0 0 0 0 0 0 0 0 0 0 0 0 0 0 0 0 0 0 0 0 0 0 0 0 0 0 0 0 0 0
0 0 0 0 0 0 0 0 0 0 0 0 0 0 0 0 0 0 0 0 0 0 0 0 0 0 0 0 0 0 0 0 0 0 0 0 0 0 0 0 0 0 0 0 0 0 0 0 0
0 0 0 0 0 0 0 0 0 0 0 0 0 0 -0 0 0 0 0 0 0 0 0 0 0 0 0 0 0 0 0 0 0 0 0 0 0 0 0 0 0 0 0 0 0 0 0 0 0
0 0 0 0 0 0 0 0 0 0 0 0 0 0 0 0 0 -0 -0 0 0 0 0 0 0 0 0 0 0 0 0 0 0 0 0 0 0 0 0 0 0 0 0 0 0 0 0 0 0
0 0 0 0 0 0 0 0 0 0 0 0 0 0 0 0 0 0 0 0 0 0 0 0 0 0 0 0 0 0 0 0 0 0 0 0 0 0 0 0 0 0 0 0 0 0 0 0 0
0 0 0 0 0 0 0 -0 -0 0 0 0 0 0 0 0 0 0 0 0 0 0 0 0 0 0 0 0 0 0 0 0 0 0 0 0 0 0 0 0 0 0 0 0 0 0 0 0 0
0 0 0 0 0 0 0 -0 -0 0 0 0 0 0 0 0 0 0 0 0 0 0 0 0 0 0 0 0 0 0 0 0 0 0 0 0 0 0 0 0 0 0 0 0 0 0 0 0 0
0 0 0 0 0 0 0 0 -0 0 0 0 0 0 0 0 0 0 0 0 0 0 0 0 0 0 0 0 0 0 0 0 0 0 0 0 0 0 0 0 0 0 0 0 0 0 0 0 0
0 0 0 0 0 0 0 0 0 -0 -0 0 0 0 0 0 0 0 0 0 0 0 0 0 0 0 0 0 0 0 0 0 0 0 0 0 0 0 0 0 0 0 0 0 0 0 0 0 0
0 0 0 0 0 0 0 0 0 0 -0 0 0 0 0 0 0 -0 -0 0 0 0 0 0 0 0 0 0 0 0 0 0 0 0 0 0 0 0 0 0 0 0 0 0 0 0 0 0 0
0 0 0 0 0 0 0 0 0 0 0 0 0 0 0 0 0 -0 -0 0 0 0 0 0 0 0 0 0 0 0 0 0 0 0 0 0 0 0 0 0 0 0 0 0 0 0 0 0 0
0 0 0 0 0 0 0 0 0 0 0 0 0 0 0 0 -0 0 0 0 0 0 0 0 0 0 0 0 0 0 0 0 0 0 0 0 0 0 0 0 0 0 0 0 0 0 0 0 0
0 0 0 0 0 0 0 0 0 0 0 0 0 0 0 0 0 0 0 0 0 0 0 0 0 0 0 0 0 0 0 0 0 0 0 0 0 0 0 0 0 0 0 0 0 0 0 0 0
0 0 0 0 0 0 0 0 0 0 0 0 0 0 0 0 0 0 0 0 0 0 0 0 0 0 0 0 -0 -0 -0 0 0 0 0 0 0 0 0 0 0 0 0 0 0 0 0 0 0
0 0 0 0 0 0 0 0 0 0 0 0 0 0 0 0 0 0 0 0 0 0 0 0 0 0 0 0 0 0 0 0 0 0 0 0 0 0 0 0 0 0 0 0 0 0 0 0 0
Wind_Speed_500mb
8 11 13 7 6 10 2 3 5 5 5 8 14 18 16 10 4 6 27 40 39 43 42 33 29 25 22 20 20 19 20 23 25 25 25 23 24 27 29 21 18 25 34 36 35 36 34 30 27
9 12 7 7 9 7 8 2 10 4 15 23 23 22 8 3 7 22 45 30 32 43 43 37 31 27 23 21 20 18 19 21 24 24 25 24 25 28 32 21 15 18 29 34 35 34 32 29 27
12 8 4 8 7 9 8 7 11 9 13 12 8 11 9 12 13 39 23 36 33 44 41 39 33 29 25 22 18 17 17 20 20 22 23 24 26 33 29 21 12 13 27 32 33 33 30 28 23
9 4 8 9 4 1 14 13 14 13 9 13 17 13 9 10 30 27 27 42 36 41 41 40 35 30 27 22 18 15 15 17 18 19 21 22 25 29 27 21 13 7 24 29 31 31 28 28 27
6 2 9 6 5 1 2 27 24 8 10 13 11 9 12 29 19 25 31 41 37 41 44 40 37 32 28 24 20 15 14 14 15 15 17 18 24 27 25 20 12 9 18 25 27 28 24 23 23
4 6 9 3 5 2 5 27 21 10 13 15 12 17 10 19 29 30 39 39 36 38 46 42 39 34 30 26 22 18 16 14 14 14 14 15 18 17 16 12 5 6 19 22 23 22 18 17 16
10 8 9 9 6 4 6 20 20 17 16 13 20 10 10 30 31 37 42 37 34 34 44 43 41 38 33 29 26 22 18 16 14 13 12 11 11 11 9 9 5 9 17 18 18 19 17 13 13
6 10 7 3 5 5 10 8 14 19 15 14 17 11 12 40 39 48 45 37 33 33 36 38 42 42 39 35 30 26 22 19 17 15 14 12 11 9 9 9 9 13 17 17 17 18 18 14 9
6 9 4 4 9 8 14 6 7 10 17 13 17 12 8 35 46 56 52 42 37 31 33 35 41 44 41 38 35 31 28 23 20 18 15 12 9 7 8 11 13 15 17 18 18 18 16 13 9
8 8 13 3 5 5 6 6 15 9 10 10 15 16 22 36 48 62 65 61 56 51 49 43 39 45 45 44 41 38 35 31 26 24 18 12 7 3 5 12 16 18 19 20 18 16 14 10 5
6 10 9 1 6 8 6 6 4 12 7 22 28 28 32 40 43 50 65 60 56 59 53 51 42 43 47 49 46 43 41 37 34 31 24 23 15 9 8 12 17 19 19 17 16 14 13 10 6
8 2 8 11 4 5 4 3 4 20 20 11 9 22 34 41 45 47 55 62 62 62 62 59 50 42 45 44 50 48 47 44 41 38 34 30 20 19 9 13 16 17 15 14 15 12 8 8 8
6 1 8 11 5 3 6 7 10 27 27 28 29 20 34 44 46 46 48 53 60 64 64 64 61 52 54 52 48 52 52 49 44 43 41 33 30 27 22 19 18 18 15 12 13 14 11 8 8
9 6 4 10 7 6 3 3 4 10 4 34 41 29 36 43 44 49 53 56 60 59 61 61 64 58 56 62 59 54 52 48 49 49 46 41 40 34 25 29 23 21 21 17 18 18 17 16 14
9 1 8 11 12 5 6 8 17 30 18 11 15 29 41 41 40 53 52 56 59 62 60 63 62 61 59 62 62 57 56 56 54 51 49 47 45 45 38 36 29 30 29 32 33 27 29 26 23
7 9 2 5 15 6 9 15 11 3 6 21 29 30 33 41 47 52 53 54 55 61 65 62 62 64 63 65 63 67 59 60 58 54 52 52 52 50 51 42 44 36 42 42 41 39 34 34 31
10 5 8 9 19 7 6 11 12 11 3 16 26 35 38 44 51 51 48 50 50 54 60 66 68 69 68 64 65 66 63 66 64 61 61 58 56 56 56 55 52 53 49 47 49 43 42 41 41
10 7 7 8 11 5 6 17 21 38 39 42 51 56 53 55 63 55 50 48 52 54 56 61 67 71 73 73 69 72 72 68 69 70 69 67 65 61 63 62 60 63 62 57 55 54 48 48 47
11 6 5 6 8 9 14 14 22 48 50 60 67 73 74 70 62 58 57 57 59 63 65 63 67 72 79 85 84 82 81 76 75 75 71 71 70 67 67 69 66 73 72 64 64 63 59 56 57
7 8 10 7 1 5 11 22 21 25 46 58 64 67 55 47 45 46 50 52 55 57 65 69 67 71 76 82 86 87 83 83 80 74 76 74 74 72 69 70 71 72 77 80 77 73 72 67 67
8 11 7 11 3 6 8 18 10 12 21 34 38 45 50 46 42 34 36 40 47 52 56 66 69 68 70 76 85 91 92 88 86 81 78 79 76 77 73 74 73 68 72 79 83 89 83 80 72
6 9 5 5 6 7 4 12 10 13 20 19 67 70 57 42 36 35 26 28 30 35 39 52 70 70 65 70 79 86 89 91 88 89 87 84 83 80 77 76 74 76 73 82 86 86 95 89 86
12 6 3 3 6 5 5 1 15 5 14 28 32 39 24 15 12 12 11 21 26 21 26 34 52 65 61 61 69 75 82 83 82 80 82 87 87 85 82 83 82 83 81 84 84 88 94 106 95
16 11 14 9 5 8 16 16 10 8 12 10 10 14 5 4 8 12 13 12 16 19 17 24 37 56 60 60 64 67 72 76 75 74 74 74 76 82 85 86 87 88 90 86 95 89 94 94 109
9 14 4 6 4 12 4 3 15 17 18 11 16 29 21 12 13 14 13 10 7 9 15 23 35 47 49 51 53 55 58 63 66 65 66 68 70 73 78 84 86 85 89 93 96 97 94 104 97
14 16 12 15 8 8 1 12 10 11 15 19 26 19 13 8 10 10 6 11 19 25 25 25 28 33 38 41 41 42 46 50 54 56 58 62 65 66 65 68 73 79 87 88 99 98 100 103 103
13 12 10 10 4 6 9 12 19 13 10 23 44 46 38 20 2 4 12 23 25 20 17 18 18 19 21 22 22 24 27 32 35 40 48 54 57 60 63 66 68 71 74 78 82 99 93 100 98
12 16 7 5 5 8 8 8 12 5 7 13 20 35 40 30 22 13 15 18 19 12 7 6 8 9 9 8 5 4 12 17 25 32 39 45 50 56 58 61 62 65 68 69 74 89 91 92 98
7 8 5 10 10 10 2 11 13 14 14 15 14 28 34 37 34 35 24 19 8 7 15 18 17 13 8 5 2 6 10 17 24 31 37 43 48 52 56 57 60 62 64 66 72 83 87 89 93
1 17 13 10 9 8 6 14 6 16 20 25 18 33 34 35 31 33 34 22 9 2 7 12 10 12 13 15 17 19 25 30 34 39 43 48 49 49 52 56 58 61 61 62 64 63 74 85 88
Wind_Direction_500mb
174 203 240 243 62 63 265 110 148 112 59 100 93 96 123 85 117 193 145 160 164 165 170 170 163 156 143 134 121 109 102 99 97 96 100 109 108 109 109 98 71 73 87 93 98 103 106 99 93
181 221 216 124 85 74 281 254 134 183 143 113 95 113 66 116 131 147 150 163 169 172 171 172 168 162 151 135 121 113 109 103 96 96 100 109 113 112 112 115 97 64 96 101 107 112 109 105 100
195 187 142 93 115 157 178 193 162 126 138 125 100 92 120 143 168 167 154 166 173 177 176 174 170 170 160 150 131 127 116 108 104 101 102 104 110 117 115 123 113 70 105 105 112 118 117 113 100
191 160 79 86 103 307 167 167 156 134 109 107 127 80 104 170 159 179 169 170 178 180 180 179 176 174 172 162 150 138 124 117 110 105 104 109 117 121 126 147 141 107 107 113 119 124 125 119 107
141 86 62 74 9 54 103 160 155 132 143 136 141 166 140 151 166 188 175 176 185 182 183 183 182 182 181 174 168 154 145 133 122 111 106 109 123 128 148 163 165 125 113 118 126 133 135 127 112
105 72 64 92 302 105 177 169 140 126 154 151 119 138 156 170 176 186 182 185 187 185 184 187 186 189 189 184 180 173 163 153 142 131 121 118 130 141 153 159 158 135 125 124 132 141 138 134 125
119 82 169 176 157 169 188 159 142 165 160 191 156 125 169 172 175 184 187 191 189 188 187 189 192 193 195 193 191 188 183 173 165 156 147 140 140 148 147 141 135 136 130 131 136 137 143 143 128
115 95 143 161 160 196 176 131 141 160 196 167 173 175 187 187 178 178 189 195 195 192 193 195 198 198 198 198 197 198 197 190 184 177 170 161 154 154 158 159 146 138 136 137 140 145 151 153 138
113 67 166 193 161 184 178 130 135 132 151 174 187 183 203 177 174 179 185 192 197 201 206 211 204 204 205 204 202 202 204 201 196 189 176 163 148 151 168 163 158 146 140 141 144 148 152 158 145
93 112 197 244 148 174 144 154 152 152 161 205 192 204 180 178 178 182 190 191 195 200 207 219 212 208 208 208 208 207 208 208 205 197 198 198 192 162 182 178 164 153 147 147 152 151 154 159 150
138 167 193 104 103 132 150 133 189 155 220 218 211 207 192 189 191 195 197 203 205 204 211 214 224 218 215 216 214 213 212 211 209 204 207 199 196 207 168 180 166 158 155 159 161 163 166 163 153
116 131 162 170 152 138 196 242 220 216 224 225 199 237 215 207 206 209 209 209 209 208 215 219 223 223 217 223 225 222 218 215 214 209 208 208 207 217 215 183 180 175 172 173 173 177 184 174 168
121 165 142 168 192 197 218 250 248 255 243 229 254 236 227 229 225 224 224 217 215 215 216 221 226 229 216 216 225 226 225 224 221 215 215 214 211 218 220 207 208 200 193 204 205 198 212 216 191
150 161 168 207 211 205 201 285 322 269 242 238 240 236 232 233 234 231 226 223 220 223 223 224 227 230 224 216 220 222 224 223 222 222 223 219 215 216 210 222 207 222 219 236 231 230 226 233 223
127 169 329 224 204 193 172 290 233 263 264 215 226 240 238 240 237 237 240 236 230 230 229 227 229 229 230 224 221 229 226 227 225 226 227 226 221 218 215 218 229 235 237 236 235 223 228 230 232
86 54 121 270 159 192 134 266 273 294 206 250 251 247 242 241 244 250 248 247 243 238 233 232 232 232 233 231 227 228 232 231 232 229 231 230 228 225 227 231 232 235 238 239 232 236 228 230 225
11 187 214 300 190 141 154 250 251 179 186 278 265 267 266 257 249 251 249 249 248 246 240 235 234 236 236 237 235 234 235 234 234 233 234 235 234 231 232 235 232 230 230 237 234 236 233 231 226
191 196 232 226 220 186 176 254 275 274 285 280 280 276 271 262 254 256 259 257 251 247 245 241 237 237 239 238 237 237 238 238 238 240 237 237 238 238 236 235 237 234 234 235 235 234 234 231 229
145 148 208 251 209 155 229 256 267 278 287 282 280 282 278 270 266 258 254 256 254 248 242 241 237 236 235 235 233 233 236 237 237 242 243 237 238 240 239 237 237 237 237 243 239 234 231 226 226
224 236 241 289 67 171 278 263 258 263 266 269 277 282 282 285 273 264 257 253 250 249 246 240 240 239 237 237 239 238 240 241 240 240 240 239 238 239 240 239 237 241 240 238 238 241 231 227 227
198 184 198 222 17 289 325 292 298 286 267 277 270 274 280 283 282 278 265 260 252 248 246 244 243 242 239 239 237 235 236 240 242 237 241 241 242 243 243 245 244 240 246 246 248 240 236 237 235
202 216 214 187 86 237 31 285 293 263 293 294 276 275 288 287 279 282 268 256 261 256 249 245 243 243 243 241 242 242 242 242 245 244 241 243 247 248 248 249 250 245 248 249 249 251 245 236 243
222 156 124 65 103 51 308 26 273 280 278 263 282 289 282 279 287 314 292 257 254 259 258 247 242 242 245 246 247 249 247 249 250 251 251 247 251 253 253 253 253 253 253 251 251 252 249 244 247
148 78 44 53 57 287 202 181 281 233 215 298 293 350 324 277 302 304 297 269 245 266 266 235 231 238 242 245 250 251 251 254 253 256 257 255 250 249 252 253 255 257 258 255 255 254 261 246 254
99 89 324 327 351 235 52 155 242 269 245 228 354 342 340 276 267 264 259 264 272 261 261 244 230 233 242 250 253 254 255 257 260 262 261 260 258 253 250 252 253 256 254 258 254 257 256 244 258
186 155 165 200 204 261 270 238 243 249 293 339 32 24 352 290 254 233 281 285 288 286 273 252 240 236 240 248 252 253 254 257 261 264 264 264 264 263 262 258 256 256 257 258 254 257 254 251 266
192 204 174 95 39 44 225 289 303 315 358 31 34 33 24 28 183 239 283 297 294 282 265 252 246 242 240 240 242 247 252 256 263 266 266 267 268 268 264 260 256 254 254 256 250 251 253 256 263
165 161 78 358 151 248 265 255 223 189 81 42 35 36 37 38 39 7 335 300 289 278 235 170 137 130 125 125 127 214 252 262 266 266 269 273 273 269 266 263 260 258 259 258 249 250 250 254 256
139 187 166 136 157 186 237 255 219 158 144 118 63 46 32 23 24 19 354 330 300 160 143 137 126 118 127 139 222 292 287 276 277 279 278 279 278 278 275 270 266 263 260 257 255 250 247 249 252
138 202 163 158 217 239 162 261 160 126 127 105 64 22 19 23 16 17 15 18 6 114 166 155 64 336 292 281 277 290 291 287 288 291 285 277 278 279 277 274 269 265 261 258 256 249 245 248 249
Wind_Speed_850mb
8 11 13 7 6 10 2 3 5 5 5 8 14 18 16 10 4 6 27 40 39 43 42 33 29 25 22 20 20 19 20 23 25 25 25 23 24 27 29 21 18 25 34 36 35 36 34 30 27
9 12 7 7 9 7 8 2 10 4 15 23 23 22 8 3 7 22 45 30 32 43 43 37 31 27 23 21 20 18 19 21 24 24 25 24 25 28 32 21 15 18 29 34 35 34 32 29 27
12 8 4 8 7 9 8 7 11 9 13 12 8 11 9 12 13 39 23 36 33 44 41 39 33 29 25 22 18 17 17 20 20 22 23 24 26 33 29 21 12 13 27 32 33 33 30 28 23
9 4 8 9 4 1 14 13 14 13 9 13 17 13 9 10 30 27 27 42 36 41 41 40 35 30 27 22 18 15 15 17 18 19 21 22 25 29 27 21 13 7 24 29 31 31 28 28 27
6 2 9 6 5 1 2 27 24 8 10 13 11 9 12 29 19 25 31 41 37 41 44 40 37 32 28 24 20 15 14 14 15 15 17 18 24 27 25 20 12 9 18 25 27 28 24 23 23
4 6 9 3 5 2 5 27 21 10 13 15 12 17 10 19 29 30 39 39 36 38 46 42 39 34 30 26 22 18 16 14 14 14 14 15 18 17 16 12 5 6 19 22 23 22 18 17 16
10 8 9 9 6 4 6 20 20 17 16 13 20 10 10 30 31 37 42 37 34 34 44 43 41 38 33 29 26 22 18 16 14 13 12 11 11 11 9 9 5 9 17 18 18 19 17 13 13
6 10 7 3 5 5 10 8 14 19 15 14 17 11 12 40 39 48 45 37 33 33 36 38 42 42 39 35 30 26 22 19 17 15 14 12 11 9 9 9 9 13 17 17 17 18 18 14 9
6 9 4 4 9 8 14 6 7 10 17 13 17 12 8 35 46 56 52 42 37 31 33 35 41 44 41 38 35 31 28 23 20 18 15 12 9 7 8 11 13 15 17 18 18 18 16 13 9
8 8 13 3 5 5 6 6 15 9 10 10 15 16 22 36 48 62 65 61 56 51 49 43 39 45 45 44 41 38 35 31 26 24 18 12 7 3 5 12 16 18 19 20 18 16 14 10 5
6 10 9 1 6 8 6 6 4 12 7 22 28 28 32 40 43 50 65 60 56 59 53 51 42 43 47 49 46 43 41 37 34 31 24 23 15 9 8 12 17 19 19 17 16 14 13 10 6
8 2 8 11 4 5 4 3 4 20 20 11 9 22 34 41 45 47 55 62 62 62 62 59 50 42 45 44 50 48 47 44 41 38 34 30 20 19 9 13 16 17 15 14 15 12 8 8 8
6 1 8 11 5 3 6 7 10 27 27 28 29 20 34 44 46 46 48 53 60 64 64 64 61 52 54 52 48 52 52 49 44 43 41 33 30 27 22 19 18 18 15 12 13 14 11 8 8
9 6 4 10 7 6 3 3 4 10 4 34 41 29 36 43 44 49 53 56 60 59 61 61 64 58 56 62 59 54 52 48 49 49 46 41 40 34 25 29 23 21 21 17 18 18 17 16 14
9 1 8 11 12 5 6 8 17 30 18 11 15 29 41 41 40 53 52 56 59 62 60 63 62 61 59 62 62 57 56 56 54 51 49 47 45 45 38 36 29 30 29 32 33 27 29 26 23
7 9 2 5 15 6 9 15 11 3 6 21 29 30 33 41 47 52 53 54 55 61 65 62 62 64 63 65 63 67 59 60 58 54 52 52 52 50 51 42 44 36 42 42 41 39 34 34 31
10 5 8 9 19 7 6 11 12 11 3 16 26 35 38 44 51 51 48 50 50 54 60 66 68 69 68 64 65 66 63 66 64 61 61 58 56 56 56 55 52 53 49 47 49 43 42 41 41
10 7 7 8 11 5 6 17 21 38 39 42 51 56 53 55 63 55 50 48 52 54 56 61 67 71 73 73 69 72 72 68 69 70 69 67 65 61 63 62 60 63 62 57 55 54 48 48 47
11 6 5 6 8 9 14 14 22 48 50 60 67 73 74 70 62 58 57 57 59 63 65 63 67 72 79 85 84 82 81 76 75 75 71 71 70 67 67 69 66 73 72 64 64 63 59 56 57
7 8 10 7 1 5 11 22 21 25 46 58 64 67 55 47 45 46 50 52 55 57 65 69 67 71 76 82 86 87 83 83 80 74 76 74 74 72 69 70 71 72 77 80 77 73 72 67 67
8 11 7 11 3 6 8 18 10 12 21 34 38 45 50 46 42 34 36 40 47 52 56 66 69 68 70 76 85 91 92 88 86 81 78 79 76 77 73 74 73 68 72 79 83 89 83 80 72
6 9 5 5 6 7 4 12 10 13 20 19 67 70 57 42 36 35 26 28 30 35 39 52 70 70 65 70 79 86 89 91 88 89 87 84 83 80 77 76 74 76 73 82 86 86 95 89 86
12 6 3 3 6 5 5 1 15 5 14 28 32 39 24 15 12 12 11 21 26 21 26 34 52 65 61 61 69 75 82 83 82 80 82 87 87 85 82 83 82 83 81 84 84 88 94 106 95
16 11 14 9 5 8 16 16 10 8 12 10 10 14 5 4 8 12 13 12 16 19 17 24 37 56 60 60 64 67 72 76 75 74 74 74 76 82 85 86 87 88 90 86 95 89 94 94 109
9 14 4 6 4 12 4 3 15 17 18 11 16 29 21 12 13 14 13 10 7 9 15 23 35 47 49 51 53 55 58 63 66 65 66 68 70 73 78 84 86 85 89 93 96 97 94 104 97
14 16 12 15 8 8 1 12 10 11 15 19 26 19 13 8 10 10 6 11 19 25 25 25 28 33 38 41 41 42 46 50 54 56 58 62 65 66 65 68 73 79 87 88 99 98 100 103 103
13 12 10 10 4 6 9 12 19 13 10 23 44 46 38 20 2 4 12 23 25 20 17 18 18 19 21 22 22 24 27 32 35 40 48 54 57 60 63 66 68 71 74 78 82 99 93 100 98
12 16 7 5 5 8 8 8 12 5 7 13 20 35 40 30 22 13 15 18 19 12 7 6 8 9 9 8 5 4 12 17 25 32 39 45 50 56 58 61 62 65 68 69 74 89 91 92 98
7 8 5 10 10 10 2 11 13 14 14 15 14 28 34 37 34 35 24 19 8 7 15 18 17 13 8 5 2 6 10 17 24 31 37 43 48 52 56 57 60 62 64 66 72 83 87 89 93
1 17 13 10 9 8 6 14 6 16 20 25 18 33 34 35 31 33 34 22 9 2 7 12 10 12 13 15 17 19 25 30 34 39 43 48 49 49 52 56 58 61 61 62 64 63 74 85 88
Wind_Direction_850mb
174 203 240 243 62 63 265 110 148 112 59 100 93 96 123 85 117 193 145 160 164 165 170 170 163 156 143 134 121 109 102 99 97 96 100 109 108 109 109 98 71 73 87 93 98 103 106 99 93
181 221 216 124 85 74 281 254 134 183 143 113 95 113 66 116 131 147 150 163 169 172 171 172 168 162 151 135 121 113 109 103 96 96 100 109 113 112 112 115 97 64 96 101 107 112 109 105 100
195 187 142 93 115 157 178 193 162 126 138 125 100 92 120 143 168 167 154 166 173 177 176 174 170 170 160 150 131 127 116 108 104 101 102 104 110 117 115 123 113 70 105 105 112 118 117 113 100
191 160 79 86 103 307 167 167 156 134 109 107 127 80 104 170 159 179 169 170 178 180 180 179 176 174 172 162 150 138 124 117 110 105 104 109 117 121 126 147 141 107 107 113 119 124 125 119 107
141 86 62 74 9 54 103 160 155 132 143 136 141 166 140 151 166 188 175 176 185 182 183 183 182 182 181 174 168 154 145 133 122 111 106 109 123 128 148 163 165 125 113 118 126 133 135 127 112
105 72 64 92 302 105 177 169 140 126 154 151 119 138 156 170 176 186 182 185 187 185 184 187 186 189 189 184 180 173 163 153 142 131 121 118 130 141 153 159 158 135 125 124 132 141 138 134 125
119 82 169 176 157 169 188 159 142 165 160 191 156 125 169 172 175 184 187 191 189 188 187 189 192 193 195 193 191 188 183 173 165 156 147 140 140 148 147 141 135 136 130 131 136 137 143 143 128
115 95 143 161 160 196 176 131 141 160 196 167 173 175 187 187 178 178 189 195 195 192 193 195 198 198 198 198 197 198 197 190 184 177 170 161 154 154 158 159 146 138 136 137 140 145 151 153 138
113 67 166 193 161 184 178 130 135 132 151 174 187 183 203 177 174 179 185 192 197 201 206 211 204 204 205 204 202 202 204 201 196 189 176 163 148 151 168 163 158 146 140 141 144 148 152 158 145
93 112 197 244 148 174 144 154 152 152 161 205 192 204 180 178 178 182 190 191 195 200 207 219 212 208 208 208 208 207 208 208 205 197 198 198 192 162 182 178 164 153 147 147 152 151 154 159 150
138 167 193 104 103 132 150 133 189 155 220 218 211 207 192 189 191 195 197 203 205 204 211 214 224 218 215 216 214 213 212 211 209 204 207 199 196 207 168 180 166 158 155 159 161 163 166 163 153
116 131 162 170 152 138 196 242 220 216 224 225 199 237 215 207 206 209 209 209 209 208 215 219 223 223 217 223 225 222 218 215 214 209 208 208 207 217 215 183 180 175 172 173 173 177 184 174 168
121 165 142 168 192 197 218 250 248 255 243 229 254 236 227 229 225 224 224 217 215 215 216 221 226 229 216 216 225 226 225 224 221 215 215 214 211 218 220 207 208 200 193 204 205 198 212 216 191
150 161 168 207 211 205 201 285 322 269 242 238 240 236 232 233 234 231 226 223 220 223 223 224 227 230 224 216 220 222 224 223 222 222 223 219 215 216 210 222 207 222 219 236 231 230 226 233 223
127 169 329 224 204 193 172 290 233 263 264 215 226 240 238 240 237 237 240 236 230 230 229 227 229 229 230 224 221 229 226 227 225 226 227 226 221 218 215 218 229 235 237 236 235 223 228 230 232
86 54 121 270 159 192 134 266 273 294 206 250 251 247 242 241 244 250 248 247 243 238 233 232 232 232 233 231 227 228 232 231 232 229 231 230 228 225 227 231 232 235 238 239 232 236 228 230 225
11 187 214 300 190 141 154 250 251 179 186 278 265 267 266 257 249 251 249 249 248 246 240 235 234 236 236 237 235 234 235 234 234 233 234 235 234 231 232 235 232 230 230 237 234 236 233 231 226
191 196 232 226 220 186 176 254 275 274 285 280 280 276 271 262 254 256 259 257 251 247 245 241 237 237 239 238 237 237 238 238 238 240 237 237 238 238 236 235 237 234 234 235 235 234 234 231 229
145 148 208 251 209 155 229 256 267 278 287 282 280 282 278 270 266 258 254 256 254 248 242 241 237 236 235 235 233 233 236 237 237 242 243 237 238 240 239 237 237 237 237 243 239 234 231 226 226
224 236 241 289 67 171 278 263 258 263 266 269 277 282 282 285 273 264 257 253 250 249 246 240 240 239 237 237 239 238 240 241 240 240 240 239 238 239 240 239 237 241 240 238 238 241 231 227 227
198 184 198 222 17 289 325 292 298 286 267 277 270 274 280 283 282 278 265 260 252 248 246 244 243 242 239 239 237 235 236 240 242 237 241 241 242 243 243 245 244 240 246 246 248 240 236 237 235
202 216 214 187 86 237 31 285 293 263 293 294 276 275 288 287 279 282 268 256 261 256 249 245 243 243 243 241 242 242 242 242 245 244 241 243 247 248 248 249 250 245 248 249 249 251 245 236 243
222 156 124 65 103 51 308 26 273 280 278 263 282 289 282 279 287 314 292 257 254 259 258 247 242 242 245 246 247 249 247 249 250 251 251 247 251 253 253 253 253 253 253 251 251 252 249 244 247
148 78 44 53 57 287 202 181 281 233 215 298 293 350 324 277 302 304 297 269 245 266 266 235 231 238 242 245 250 251 251 254 253 256 257 255 250 249 252 253 255 257 258 255 255 254 261 246 254
99 89 324 327 351 235 52 155 242 269 245 228 354 342 340 276 267 264 259 264 272 261 261 244 230 233 242 250 253 254 255 257 260 262 261 260 258 253 250 252 253 256 254 258 254 257 256 244 258
186 155 165 200 204 261 270 238 243 249 293 339 32 24 352 290 254 233 281 285 288 286 273 252 240 236 240 248 252 253 254 257 261 264 264 264 264 263 262 258 256 256 257 258 254 257 254 251 266
192 204 174 95 39 44 225 289 303 315 358 31 34 33 24 28 183 239 283 297 294 282 265 252 246 242 240 240 242 247 252 256 263 266 266 267 268 268 264 260 256 254 254 256 250 251 253 256 263
165 161 78 358 151 248 265 255 223 189 81 42 35 36 37 38 39 7 335 300 289 278 235 170 137 130 125 125 127 214 252 262 266 266 269 273 273 269 266 263 260 258 259 258 249 250 250 254 256
139 187 166 136 157 186 237 255 219 158 144 118 63 46 32 23 24 19 354 330 300 160 143 137 126 118 127 139 222 292 287 276 277 279 278 279 278 278 275 270 266 263 260 257 255 250 247 249 252
138 202 163 158 217 239 162 261 160 126 127 105 64 22 19 23 16 17 15 18 6 114 166 155 64 336 292 281 277 290 291 287 288 291 285 277 278 279 277 274 269 265 261 258 256 249 245 248 249